STARLINK-34535, 64698

Orbit data source: Space-Track

STARLINK-34535, 64698 is a payload satellite owned by SpaceX/Seattle (US) in LEO that was launched on Sat, 28 Jun 2025 UTC via an FALCON 9 launch vehicle from the Air Force Western Test Range (AFWTR). Payload-class satellites include a variety of spacecraft equipped with specific instruments for various scientific and technological missions. These include communications satellites like Starlink; space stations such as the ISS; scientific satellites like the Hubble; Earth observation satellites from companies like Planet Labs, Umbra, and HawkEye 360; GPS; miniature CubeSats for education and research; and military/defense satellites.

Loading next visibility...
Identifier
64698, 2025-142C
Orbit
LEO
Country
Flag of USUS
Related business
Manufacturer
SpaceX/Seattle
Mission
Operational Commercial Communications
Bus & Motor
STARLINK V2MO, Unknown motor
Mass
575 kg wet, ~530 kg dry
Launch date (UTC)
2025-06-28 (1 year ago)
Launch vehicle
FALCON 9
Launch site
Air Force Western Test Range (AFWTR)
Object type
Payload
Rocket body
Debris
Shape & HBR
Box + 2 Pan, 17.7 m
Radar Cross Section
36.964 m², Large (>1 m²)

Expand to show TLE details & history
Last TLE update: 6 hours ago

TLE from 6 hours ago
0 STARLINK-34535
1 64698U 25142C   26207.59162802  .00004181  00000-0  35793-3 0  9991
2 64698  70.0021 324.3459 0002872 266.3171  93.7660 14.98336910 60270
Epoch: 2026-07-26T14:11Z
TLE epoch observation values (Epoch: 2026-07-26T14:11:56.660Z)
Latitude
-0.00002°
Longitude
167.07246°
Altitude
574.59 km
Speed
7.574 km/s
True Right ascension
21h 37m 23s
True Declination
0° 00' 00"
Sunlit
Object was in full shadow at epoch
Visualization orbit readout
Latitude
Unknown
Longitude
Unknown
Altitude
Unknown
Speed
Unknown
Apparent Right ascension
Unknown
Apparent Declination
Unknown
Sunlit
N/A
Visualization observer readout
Local Sidereal Time
09:49:22
Azimuth
Unknown
Elevation
Unknown
Doppler factor
Unknown
Orbital elements
Apogee altitude
571.978 km
Perigee altitude
567.987 km
Semi-major axis
6,948.12 km
Eccentricity
0.00029
Inclination
70.0021°
RAAN
324.3459°
Arg. of periapsis
266.3171°
True anomaly
93.79884°
Mean anomaly
93.766°
Eccentric anomaly
93.78242°
Mean motion
3.74751 °/min
Orbital period
96.06 mins
BSTAR
0.00035793
Loading maneuver chart data...
Computing Atmospheric mass density...
Loading historical data...
Loading historical data...
Loading historical data...
Loading historical data...
Loading historical data...
Loading historical data...
Loading historical data...

Documentation

Showing up to 5 results
|